Hauptseite
METAR-TAF:

METAR-TAF

Flughäfen :

Militärflugplatz Dübendorf

Dübendorf, Schweiz

Breite: 47-23-55N, Länge: 8-38-53E, Höhe: 448 m

Beobachtung

Neuester Wetterbericht von vor 33 Minuten, um 00:20 UTC
Windstille
Temperatur 1°C
Luftfeuchtigkeit 100%
Luftdruck 1037 hPa
Sichtweite 10 km oder mehr
Durchbrochene Bewölkung in der Höhe von 4500 ft
Geschlossene Wolkendecke in der Höhe von 9500 ft

METAR: LSMD 050020Z AUTO 00000KT 9999NDV BKN045 OVC095 01/01 Q1037 RMK

Zeit: 01:53 (00:53 UTC)


TAF: fehlend

Wetterbeobachtungen und Prognosen von mehr als 4000 Flughäfen (METAR und TAF Bericht).

Die verfügbaren Stationen werden durch gelbe und rote Markierungen auf der Karte dargestellt.

Führen Sie die Maus auf sie, um den Namen der Station zu sehen.

Darauf klicken, um die Beobachtung von Wetterbeobachtungen und Prognosen zu sehen.

Um die Karte zu ändern : klicken Sie auf den grünen Tasten mit einem schwarzen Kreuz Zum Vergrößern, auf den grünen Button mit einem Gedankenstrich zu verkleinern, oder auf die grünen Pfeile für benachbarte Karten.


METAR-TAF: